Flag for Iran Weather past 2 weeks in Esfahãn, Iran

Now
91 °F

Sunny.


Feels Like: 87 °F
Forecast: 57 / 92 °F
Wind: 7 mph from Southeast

Location: Esfahan

Current Time: Sep 20, 2014 at 9:38:29 PM

Latest Report: Sep 20, 2014 at 6:00 PM


Visibility: 5 mi

Pressure: 29.95 "Hg

Humidity: 10%

Dew point: 27 °F

Location of EsfahãnLocation

Historic Weather in Esfahãn — Graph

°F

Esfahãn temperature yesterday

Maximum temperature yesterday: 93 °F (at 3:30 PM)
Minimum temperature yesterday: 55 °F (at 5:30 AM)
Average temperature yesterday: 76 °F

Past Weeks' High & Low Weather Summary

 TemperatureHumidityPressure
High97 °F (Sep 6, 4:00 PM)44% (Sep 19, 6:00 AM)30.18 "Hg (Sep 19, 6:00 AM)
Low48 °F (Sep 15, 6:00 AM)4% (Sep 10, 5:30 PM)29.77 "Hg (Sep 5, 5:30 PM)
Average77 °F15%29.98 "Hg
* Reported Sep 5 5:30 PM — Sep 20 5:30 PM, Esfahãn, Weather by CustomWeather, © 2014

Note: Actual official high and low records may vary slightly from our data, if they occured in-between our weather recording intervals... More about our weather records

Advertising

Esfahãn weather history for previous 24 hours

 ConditionsComfort  
Time TempWeatherWind HumidityBarometerVisibility
5:30 PM
Sep 20
93 °FSunny.9 mph9%29.95 "Hg5 mi
5:00 PM93 °FSunny.5 mph9%29.95 "Hg5 mi
4:30 PM93 °FSunny.5 mph9%29.95 "Hg4 mi
4:00 PM93 °FSunny.5 mph9%29.95 "Hg4 mi
3:30 PM91 °FSunny.7 mph10%29.98 "Hg4 mi
3:00 PM93 °FSunny.No wind10%29.98 "Hg4 mi
2:30 PM91 °FSunny.7 mph10%30.01 "Hg4 mi
2:00 PM90 °FSunny.5 mph10%30.01 "Hg4 mi
1:30 PM90 °FSunny.5 mph11%30.04 "Hg3 mi
1:00 PM90 °FSunny.9 mph11%30.07 "Hg3 mi
12:30 PM88 °FSunny.7 mph13%30.07 "Hg3 mi
12:00 PM88 °FSunny.No wind13%30.09 "Hg3 mi
11:30 AM84 °FSunny.5 mph16%30.09 "Hg3 mi
11:00 AM84 °FSunny.12 mph16%30.09 "Hg2 mi
10:30 AM81 °FSunny.9 mph20%30.09 "Hg2 mi
10:00 AM77 °FSunny.7 mph21%30.09 "Hg2 mi
9:30 AM73 °FSunny.9 mph23%30.09 "Hg2 mi
9:00 AM70 °FSunny.9 mph25%30.09 "Hg2 mi
8:30 AM66 °FSunny.7 mph26%30.09 "Hg1 mi
8:00 AM63 °FClear.5 mph32%30.09 "Hg1 mi
7:30 AM57 °FClear.5 mph36%30.09 "Hg2 mi
7:00 AM57 °FClear.7 mph33%30.07 "Hg3 mi
6:30 AM55 °FClear.7 mph38%30.07 "Hg3 mi
5:30 AM55 °FClear.7 mph38%30.07 "Hg2 mi
5:00 AM61 °FClear.7 mph34%30.07 "Hg2 mi
4:30 AM61 °FClear.7 mph34%30.07 "Hg2 mi
4:00 AM63 °FClear.5 mph34%30.07 "Hg2 mi
3:30 AM61 °FClear.5 mph34%30.07 "Hg2 mi
3:00 AM63 °FClear.7 mph32%30.07 "Hg2 mi
2:30 AM64 °FClear.5 mph30%30.07 "Hg2 mi
2:00 AM66 °FClear.7 mph28%30.07 "Hg2 mi
1:00 AM66 °FClear.5 mph26%30.09 "Hg2 mi
12:30 AM64 °FClear.7 mph32%30.09 "Hg2 mi
12:00 AM66 °FClear.5 mph28%30.09 "Hg3 mi
11:30 PM
Sep 19
66 °FClear.7 mph26%30.09 "Hg4 mi
11:00 PM68 °FClear.9 mph24%30.09 "Hg4 mi
10:30 PM73 °FClear.7 mph17%30.07 "Hg4 mi
10:00 PM77 °FClear.No wind15%30.07 "Hg10 mi
9:30 PM79 °FClear.No wind16%30.07 "Hg10 mi
9:00 PM79 °FClear.7 mph15%30.07 "Hg10 mi
Weather by CustomWeather, © 2014

See weather overviewHow to use our weather pages